Terminal Aerodrome Forecast
Issued by NWS Blacksburg, VA

Current Version | Previous Version | Text Only | Print | Product List | Glossary Off
Versions: 1 2 3 4 5 6 7 8 9 10 11 12 13 14 15 16 17 18 19 20

000
FTUS41 KRNK 231122
TAFBLF
TAF
KBLF 231122Z 2312/2412 00000KT P6SM OVC040
     FM231300 00000KT P6SM OVC025
     FM231600 VRB03KT P6SM BKN035
     FM240200 16004KT P6SM SCT050=

USA.gov is the U.S. government's official web portal to all federal, state and local government web resources and services.